Regional Weather Roundup
Issued by NWS

Home | Current Version | Previous Version | Text Only | Print | Product List | Glossary Off
Versions: 1 2 3 4 5 6 7 8 9 10 11 12 13 14 15 16 17 18 19 20 21 22 23 24 25 26 27 28 29 30 31 32 33 34 35 36 37 38 39 40 41 42 43 44 45 46 47 48 49 50

000
ASUS43 KFSD 242102
RWRSD

WEATHER ROUNDUP FOR SOUTH DAKOTA
NATIONAL WEATHER SERVICE SIOUX FALLS SD
400 PM CDT FRI MAR 24 2017

NOTE: "FAIR" INDICATES FEW OR NO CLOUDS BELOW 12,000 FEET WITH NO
SIGNIFICANT WEATHER AND/OR OBSTRUCTIONS TO VISIBILITY.


SDZ001>005-009-010-012>017-242200-
NORTHWEST AND NORTH CENTRAL SOUTH DAKOTA

CITY           SKY/WX    TMP DP  RH WIND       PRES   REMARKS
BUFFALO          N/A     59  33  37 VRB5      30.01F
FAITH            N/A     58  39  49 E6        30.08S
MOBRIDGE       SUNNY     57  32  38 E9        30.09F
$$

SDZ012>016-024>037-041>051-057-063-072>074-242200-
SOUTHWEST AND SOUTH CENTRAL SOUTH DAKOTA

CITY           SKY/WX    TMP DP  RH WIND       PRES   REMARKS
RAPID CTY ARPT PTSUNNY   59  30  33 NW7       30.07F
PIERRE         CLOUDY    58  32  37 E10       30.09F
CUSTER         MOSUNNY   54  21  27 VRB3      30.08F
ELLSWORTH AFB  PTSUNNY   58  31  36 N6        30.07F
PHILIP         MOSUNNY   63  33  32 VRB7      30.07F
PINE RIDGE     MOSUNNY   61  32  33 NE12      30.07F
SPEARFISH      FAIR      55  25  30 N5G12     30.10S
WINNER         FAIR      57  32  38 NE21      30.08S
$$

SDZ004>011-016>023-039-040-242200-
NORTHEAST SOUTH DAKOTA

CITY           SKY/WX    TMP DP  RH WIND       PRES   REMARKS
ABERDEEN       CLOUDY    47  31  53 NE9       30.15F
WATERTOWN      CLOUDY    38  33  82 NE13      30.13R
BROOKINGS      CLOUDY    37  34  89 N14       30.10S
SISSETON         N/A     45  36  70 N17       30.14R
$$

SDZ017-020-022-023-036>040-048>070-242200-
SOUTHEAST SOUTH DAKOTA

CITY           SKY/WX    TMP DP  RH WIND       PRES   REMARKS
SIOUX FALLS    CLOUDY    42  37  82 N17G24    30.07S
HURON          CLOUDY    47  36  65 NE15      30.12F
CHAMBERLAIN    CLOUDY    53  36  54 N12       30.10S
MITCHELL       CLOUDY    48  38  68 N17       30.10F
YANKTON        CLOUDY    45  37  76 N14       30.05F
$$

ABBREVIATIONS USED IN REMARKS
   TC - TEMPERATURE IN CELSIUS
  WCI - WIND CHILL INDEX
   HX - HEAT INDEX
  VSB - VISIBILITY




USA.gov is the U.S. government's official web portal to all federal, state and local government web resources and services.